User: anonymous   Login
Location: Las Callecitas
(9.8750°N, 67.4611°W)
Time: 04:30:11
(UTC+00:00)
Language:

Cosmos 1943 - Orbit

View from above orbital plane
View from above orbital plane
View from above satellite
View from above satellite

Ground track
Ground track

The orbit data is extracted from the following two-line orbital elements,

1 19119U 88039A   24164.94613788 -.00000110  00000-0 -31796-4 0  9996
2 19119  71.0020 140.0668 0009882 144.2840 281.0987 14.15456509862986
Epoch (UTC): 12 June 2024 22:42:26
Eccentricity: 0.0009882
inclination: 71.0020°
perigee height: 833 km
apogee height: 848 km
right ascension of ascending node: 140.0668°
argument of perigee: 144.2840°
revolutions per day: 14.15456509
mean anomaly at epoch: 281.0987°
orbit number at epoch: 86298

The dashed part of the orbit path shows where the satellite is in the earth's shadow,  

DLR